Location: De Greiden
(52.9496°N, 5.9137°E)
Time: 23:58:17
(UTC+00:00)

CZ-2D R/B - Pass Details

Date: 24 January 2021
Orbit: 520 x 538 km, 97.4° (Epoch: 01 March)

Event Time Altitude Azimuth Distance (km) Brightness Sun altitude
Rises 17:43:43 0° 168° (SSE) 2,670 6.8 -14.4°
Reaches altitude 10° 17:45:50 10° 170° (S) 1,782 5.9 -14.7°
Maximum altitude 17:49:41 78° 256° (WSW) 550 3.4 -15.2°
Drops below altitude 10° 17:53:32 10° 344° (NNW) 1,787 6.0 -15.8°
Sets 17:55:39 0° 346° (NNW) 2,679 6.9 -16.1°
